Date,TemperatureHighF,TemperatureAvgF,TemperatureLowF,DewpointHighF,DewpointAvgF,DewpointLowF,HumidityHigh,HumidityAvg,HumidityLow,PressureMaxIn,PressureMinIn,WindSpeedMaxMPH,WindSpeedAvgMPH,GustSpeedMaxMPH,PrecipitationSumIn
2013-10-1,39.4,33.9,30.6,34.8,32.4,30.1,98,94,83,29.74,29.66,4,2,0,0.00
2013-10-2,45.7,36.6,30.4,37.9,34.2,29.9,98,91,73,29.74,29.63,6,1,0,0.00
2013-10-3,50.5,36.5,25.7,39.6,33.0,25.2,98,88,62,29.66,29.41,6,2,0,0.00
2013-10-4,37.4,33.4,28.2,34.9,32.0,27.7,98,95,88,29.65,29.40,6,2,0,0.00
2013-10-5,45.3,35.6,27.3,36.6,32.8,26.8,98,90,70,29.67,29.49,12,4,0,0.00
2013-10-6,40.1,33.3,28.0,35.1,31.4,27.5,98,93,79,29.53,29.46,10,3,0,0.00
2013-10-7,37.8,32.7,25.9,37.1,32.1,25.4,98,98,95,29.67,29.52,7,2,0,0.08
2013-10-8,49.3,42.7,25.9,37.7,34.1,25.4,98,72,60,29.55,28.77,24,9,0,0.02
2013-10-9,40.3,36.0,34.2,38.9,35.3,31.5,98,97,87,29.51,28.78,27,12,0,0.17
2013-10-10,41.2,32.5,26.2,32.5,29.3,25.7,98,88,69,29.54,29.43,8,4,0,0.00
2013-10-11,45.1,31.9,25.0,35.8,29.7,24.5,98,92,69,29.66,29.48,5,2,0,0.00
2013-10-12,54.3,39.4,23.7,39.6,31.9,23.2,98,78,51,29.62,29.50,14,4,0,0.00
2013-10-13,50.5,47.5,38.5,38.7,34.0,32.4,98,60,52,29.50,29.18,19,9,0,0.06
2013-10-14,47.7,36.7,30.4,41.1,34.8,29.9,98,93,70,29.71,29.35,14,2,0,0.01
2013-10-15,50.4,40.2,30.7,41.3,35.8,30.2,98,86,63,29.74,29.62,8,2,0,0.00
2013-10-16,56.3,47.1,38.7,43.7,40.1,36.0,92,77,55,29.89,29.70,10,2,0,0.00
2013-10-17,51.1,44.5,38.5,46.2,40.7,35.8,96,87,72,29.78,29.50,7,3,0,0.01
2013-10-18,50.2,41.3,34.0,41.4,37.2,33.0,98,86,70,29.51,29.36,8,3,0,0.00
2013-10-19,55.9,45.8,30.7,41.3,34.9,27.3,91,67,48,29.37,29.06,29,8,0,0.00
2013-10-20,50.9,37.5,29.3,36.6,31.9,26.5,98,82,49,29.69,29.36,6,2,0,0.00
2013-10-21,39.6,27.2,21.2,31.6,25.0,20.7,98,92,70,29.90,29.69,5,2,0,0.00
2013-10-22,37.4,23.6,16.0,29.8,21.7,14.6,98,93,73,29.99,29.91,5,1,0,0.00
2013-10-23,30.7,24.5,17.8,27.0,23.1,17.1,98,94,84,29.98,29.69,6,2,0,0.00
2013-10-24,31.6,25.4,17.2,25.6,22.5,15.8,98,89,75,29.79,29.48,10,4,0,0.00
2013-10-25,42.4,30.5,21.9,30.3,24.6,19.6,94,79,62,29.95,29.48,9,3,0,0.00
2013-10-26,34.2,20.4,8.8,27.2,17.9,6.5,98,90,75,30.31,29.97,4,2,0,0.00
2013-10-27,41.5,36.0,21.0,38.7,28.4,20.0,98,74,56,30.19,29.46,9,3,0,0.07
2013-10-28,54.7,41.9,36.7,42.8,38.5,36.2,98,89,58,29.43,28.81,22,5,0,0.03
2013-10-29,39.6,34.3,26.8,37.5,33.6,26.3,98,97,90,29.32,29.06,14,4,0,0.34
2013-10-30,35.2,26.4,21.4,34.7,25.9,20.9,98,98,96,29.28,28.95,4,1,0,0.01
2013-10-31,27.5,24.8,21.6,27.0,24.3,21.1,98,98,98,29.49,29.05,3,1,0,0.00